Angleton, TX

6:44 PM CDT on September 17, 2019 (GMT -0500)
Brazoria County

Weather History for KLBX - August, 2019

Change the Weather History Date:

Tuesday, August 20, 2019

  Actual Average Record
Temperature  
Mean Temperature 82 °F -  
Max Temperature 90 °F 89 °F 100 °F (1999)
Min Temperature 75 °F 72 °F 69 °F (2012)
Cooling Degree Days 16    
Growing Degree Days 32 (Base 50)    
Moisture  
Dew Point 75 °F    
Average Humidity 80    
Maximum Humidity 94    
Minimum Humidity 62    
Precipitation  
Precipitation 0.01 in - - ()
Sea Level Pressure  
Sea Level Pressure 30.02 in    
Wind  
Wind Speed 3 mph ()    
Max Wind Speed 12 mph    
Max Gust Speed -    
Visibility 9.6 miles    
Events Rain , Thunderstorm    
Averages and records for this station are not official NWS values.
T = Trace of Precipitation, MM = Missing Value Source: Averaged Metar Reports

Daily Weather History Graph

Daily Weather History Graph

Search for Another Location

Airport or City:

Astronomy

Aug. 20, 2019 Rise Set
Actual Time 6:53 AM CDT 7:56 PM CDT
Civil Twilight 6:28 AM CDT 8:21 PM CDT
Nautical Twilight 5:59 AM CDT 8:50 PM CDT
Astronomical Twilight 5:29 AM CDT 9:20 PM CDT
Moon 11:08 PM CDT (8/20) 11:11 AM CDT (8/20)
Length of Visible Light 13h 53m
Length of Day
13h 03m
Waning Gibbous, 77% of the Moon is Illuminated
Aug 20
Waning Gibbous
Aug 23
Last Quarter
Aug 30
New
Sep 5
First Quarter
Sep 13
Full

Hourly Weather History & Observations

Time (CDT) Temp. Heat Index Dew Point Humidity Pressure Visibility Wind Dir Wind Speed Gust Speed Precip Events Conditions
12:53 AM 79.0 °F - 75.9 °F 90% 29.99 in 10.0 mi Calm Calm - N/A   Partly Cloudy
1:53 AM 80.1 °F 85.8 °F 77.0 °F 90% 29.97 in 9.0 mi SW 6.9 mph - N/A   Clear
2:16 AM 81.0 °F 87.9 °F 77.0 °F 88% 29.98 in 9.0 mi Calm Calm - N/A   Mostly Cloudy
2:53 AM 80.1 °F 85.8 °F 77.0 °F 90% 29.98 in 9.0 mi Calm Calm - N/A   Mostly Cloudy
3:53 AM 79.0 °F - 75.9 °F 90% 29.99 in 9.0 mi NNE 3.5 mph - N/A   Overcast
4:14 AM 79.0 °F - 75.9 °F 90% 29.99 in 8.0 mi Calm Calm - N/A   Overcast
4:53 AM 79.0 °F - 77.0 °F 94% 29.99 in 8.0 mi Calm Calm - N/A   Overcast
5:53 AM 78.1 °F - 75.9 °F 93% 30.00 in 8.0 mi South 6.9 mph - N/A   Mostly Cloudy
6:53 AM 75.9 °F - 72.0 °F 87% 30.01 in 10.0 mi Calm Calm - N/A   Clear
7:53 AM 80.1 °F 84.2 °F 73.0 °F 79% 30.02 in 10.0 mi Calm Calm - N/A   Clear
8:53 AM 86.0 °F 96.0 °F 75.9 °F 72% 30.03 in 10.0 mi Calm Calm - N/A   Clear
9:53 AM 88.0 °F 100.2 °F 77.0 °F 70% 30.04 in 9.0 mi Calm Calm - N/A   Mostly Cloudy
10:53 AM 86.0 °F 95.1 °F 75.0 °F 70% 30.04 in 10.0 mi WSW 11.5 mph - 0.00 in   Mostly Cloudy
11:51 AM 84.2 °F 88.4 °F 69.8 °F 62% 30.06 in 10.0 mi SSE 8.1 mph - 0.00 in Thunderstorm Mostly Cloudy
11:53 AM 84.0 °F 89.0 °F 71.1 °F 65% 30.07 in 10.0 mi SSE 10.4 mph - 0.00 in Thunderstorm Mostly Cloudy
12:14 PM 79.0 °F - 73.9 °F 84% 30.07 in 10.0 mi South 11.5 mph - 0.00 in Rain Light Rain
12:53 PM 78.1 °F - 73.9 °F 87% 30.07 in 10.0 mi SSW 4.6 mph - 0.01 in   Overcast
1:53 PM 81.0 °F 85.8 °F 73.0 °F 77% 30.06 in 10.0 mi WSW 4.6 mph - N/A   Partly Cloudy
2:53 PM 84.0 °F 90.2 °F 73.0 °F 69% 30.03 in 10.0 mi Variable 3.5 mph - N/A   Clear
3:53 PM 88.0 °F 97.5 °F 75.0 °F 65% 30.03 in 10.0 mi Variable 3.5 mph - N/A   Overcast
4:53 PM 88.0 °F 97.5 °F 75.0 °F 65% 30.01 in 10.0 mi South 5.8 mph - N/A   Partly Cloudy
5:53 PM 88.0 °F 98.5 °F 75.9 °F 67% 30.01 in 10.0 mi ESE 9.2 mph - N/A   Clear
6:53 PM 84.9 °F 95.3 °F 77.0 °F 77% 30.00 in 10.0 mi SSE 6.9 mph - N/A   Clear
7:53 PM 82.9 °F 91.8 °F 77.0 °F 82% 30.00 in 10.0 mi SSE 5.8 mph - N/A   Clear
8:53 PM 81.0 °F 87.3 °F 75.9 °F 85% 29.99 in 10.0 mi Calm Calm - N/A   Clear
9:53 PM 80.1 °F 85.4 °F 75.9 °F 87% 30.00 in 10.0 mi Calm Calm - N/A   Clear
10:53 PM 80.1 °F 85.1 °F 75.0 °F 85% 30.01 in 10.0 mi SSE 4.6 mph - N/A   Clear
11:53 PM 78.1 °F - 75.0 °F 90% 30.02 in 10.0 mi Calm Calm - N/A   Clear